QPF
0.08 0.08 0.08 0.07 0.07 0.08 0.10 0.12 0.13 0.13 0.11 0.10 0.10 0.11 0.10 0.09 0.09 0.09 0.10 0.10 0.10 0.10 0.08 0.08 0.07 0.06 0.06 0.04 0.03 0.02 0.02 0.04 0.07 0.08 0.08 0.07 0.06 0.06 0.04 0.03 0.03 0.04 0.04
0.07 0.08 0.09 0.09 0.09 0.09 0.09 0.12 0.15 0.15 0.14 0.13 0.12 0.12 0.11 0.10 0.11 0.11 0.10 0.10 0.10 0.11 0.11 0.11 0.10 0.07 0.07 0.05 0.04 0.04 0.04 0.04 0.06 0.09 0.10 0.10 0.08 0.05 0.03 0.02 0.02 0.02 0.02
0.06 0.06 0.06 0.07 0.09 0.10 0.12 0.14 0.18 0.19 0.20 0.17 0.16 0.14 0.13 0.13 0.14 0.14 0.11 0.10 0.10 0.10 0.10 0.09 0.08 0.08 0.08 0.07 0.08 0.06 0.05 0.05 0.06 0.07 0.08 0.07 0.04 0.04 0.03 0.03 0.02 0.02 0.01
0.04 0.04 0.05 0.07 0.09 0.10 0.11 0.14 0.16 0.19 0.21 0.20 0.16 0.14 0.14 0.13 0.13 0.12 0.11 0.10 0.09 0.08 0.06 0.05 0.05 0.05 0.07 0.07 0.07 0.08 0.06 0.05 0.05 0.06 0.05 0.03 0.03 0.03 0.02 0.02 0.02 0.02 0.02
0.03 0.04 0.06 0.07 0.08 0.08 0.09 0.10 0.12 0.13 0.15 0.17 0.15 0.13 0.12 0.12 0.11 0.11 0.10 0.09 0.09 0.08 0.06 0.04 0.03 0.03 0.04 0.04 0.04 0.04 0.04 0.03 0.02 0.02 0.02 0.02 0.02 0.02 0.01 0.01 0.01 0.01 0.02
0.04 0.06 0.09 0.09 0.08 0.07 0.07 0.09 0.09 0.11 0.12 0.13 0.11 0.10 0.09 0.08 0.11 0.13 0.11 0.10 0.09 0.08 0.07 0.07 0.05 0.04 0.03 0.03 0.02 0.02 0.02 0.02 0.02 0.02 0.03 0.02 0.02 0.01 0.01 0.01 0.01 0.00 0.01
0.04 0.06 0.07 0.08 0.08 0.08 0.08 0.08 0.08 0.08 0.09 0.10 0.09 0.09 0.11 0.12 0.13 0.12 0.11 0.10 0.10 0.09 0.09 0.08 0.07 0.06 0.05 0.03 0.03 0.02 0.01 0.01 0.02 0.02 0.03 0.02 0.02 0.01 0.01 0.01 0.00 0.00 0.00
0.05 0.06 0.06 0.07 0.07 0.07 0.08 0.08 0.08 0.08 0.08 0.08 0.08 0.08 0.09 0.12 0.14 0.13 0.12 0.10 0.09 0.08 0.07 0.07 0.07 0.06 0.05 0.03 0.02 0.02 0.02 0.02 0.01 0.01 0.01 0.01 0.01 0.00 0.00 0.00 0.00 0.00 0.00
0.05 0.05 0.06 0.06 0.07 0.07 0.08 0.08 0.09 0.09 0.08 0.07 0.07 0.08 0.08 0.09 0.11 0.12 0.11 0.11 0.09 0.07 0.06 0.05 0.04 0.03 0.03 0.02 0.02 0.01 0.01 0.01 0.00 0.00 0.00 0.00 0.00 0.00 0.00 0.00 0.00 0.00 0.00
0.06 0.07 0.08 0.07 0.06 0.07 0.09 0.13 0.16 0.16 0.15 0.14 0.12 0.12 0.12 0.12 0.13 0.11 0.11 0.10 0.09 0.08 0.06 0.05 0.04 0.02 0.01 0.01 0.01 0.01 0.01 0.01 0.01 0.00 0.00 0.00 0.00 0.00 0.00 0.00 0.01 0.01 0.00
0.06 0.07 0.08 0.08 0.07 0.07 0.09 0.10 0.14 0.16 0.17 0.17 0.14 0.14 0.14 0.13 0.13 0.11 0.09 0.07 0.07 0.06 0.05 0.05 0.04 0.03 0.02 0.02 0.02 0.02 0.02 0.02 0.01 0.01 0.01 0.00 0.00 0.01 0.01 0.01 0.01 0.00 0.00
0.08 0.08 0.10 0.09 0.06 0.06 0.06 0.08 0.12 0.13 0.14 0.15 0.14 0.14 0.13 0.11 0.11 0.11 0.10 0.09 0.08 0.06 0.05 0.05 0.05 0.06 0.05 0.05 0.04 0.03 0.02 0.02 0.01 0.01 0.01 0.01 0.01 0.01 0.01 0.01 0.00 0.00 0.00
0.06 0.08 0.09 0.10 0.08 0.06 0.04 0.06 0.08 0.11 0.13 0.14 0.13 0.11 0.09 0.07 0.08 0.08 0.07 0.06 0.05 0.04 0.04 0.06 0.06 0.06 0.06 0.05 0.05 0.04 0.03 0.02 0.01 0.02 0.02 0.02 0.02 0.02 0.01 0.01 0.00 0.00 0.00
0.06 0.05 0.05 0.05 0.05 0.05 0.05 0.06 0.07 0.09 0.10 0.10 0.10 0.10 0.09 0.08 0.07 0.06 0.06 0.06 0.07 0.07 0.07 0.09 0.10 0.10 0.09 0.08 0.07 0.06 0.04 0.03 0.03 0.03 0.03 0.02 0.02 0.01 0.01 0.01 0.00 0.00 0.00
0.05 0.05 0.05 0.04 0.04 0.04 0.05 0.07 0.08 0.09 0.10 0.10 0.10 0.09 0.09 0.09 0.08 0.08 0.07 0.07 0.08 0.09 0.10 0.13 0.15 0.14 0.12 0.10 0.09 0.08 0.06 0.05 0.04 0.03 0.03 0.02 0.02 0.01 0.01 0.00 0.00 0.00 0.00
0.04 0.04 0.05 0.05 0.05 0.05 0.06 0.09 0.12 0.11 0.12 0.12 0.11 0.10 0.08 0.08 0.08 0.07 0.06 0.06 0.08 0.09 0.09 0.10 0.11 0.11 0.10 0.09 0.07 0.06 0.05 0.04 0.04 0.03 0.02 0.01 0.01 0.00 0.00 0.00 0.00 0.00 0.00
0.04 0.04 0.04 0.04 0.05 0.05 0.06 0.07 0.09 0.09 0.09 0.08 0.08 0.07 0.07 0.07 0.06 0.04 0.04 0.03 0.04 0.04 0.05 0.06 0.06 0.05 0.05 0.05 0.05 0.04 0.03 0.03 0.02 0.01 0.01 0.00 0.00 0.00 0.00 0.00 0.00 0.00 0.00
0.03 0.04 0.04 0.04 0.05 0.05 0.05 0.05 0.05 0.05 0.04 0.04 0.05 0.05 0.05 0.05 0.04 0.04 0.03 0.03 0.02 0.02 0.02 0.02 0.02 0.02 0.02 0.02 0.02 0.01 0.01 0.00 0.00 0.00 0.00 0.00 0.00 0.00 0.00 0.00 0.00 0.00 0.00
0.03 0.03 0.03 0.04 0.04 0.04 0.04 0.05 0.04 0.04 0.03 0.04 0.04 0.05 0.05 0.04 0.04 0.03 0.02 0.01 0.01 0.01 0.00 0.00 0.00 0.00 0.00 0.00 0.00 0.00 0.00 0.00 0.00 0.00 0.00 0.00 0.00 0.00 0.00 0.00 0.00 0.00 0.00
0.05 0.06 0.05 0.04 0.04 0.03 0.03 0.04 0.05 0.05 0.05 0.05 0.05 0.05 0.05 0.04 0.03 0.02 0.02 0.01 0.00 0.00 0.00 0.00 0.00 0.00 0.00 0.00 0.00 0.00 0.00 0.00 0.00 0.00 0.00 0.00 0.00 0.00 0.00 0.00 0.00 0.00 0.00
0.06 0.06 0.06 0.04 0.04 0.04 0.04 0.04 0.06 0.06 0.07 0.07 0.07 0.06 0.05 0.03 0.02 0.01 0.01 0.00 0.00 0.00 0.00 0.00 0.00 0.00 0.00 0.00 0.00 0.00 0.00 0.00 0.00 0.00 0.00 0.00 0.00 0.00 0.00 0.00 0.00 0.00 0.00
0.06 0.07 0.07 0.08 0.08 0.07 0.07 0.07 0.08 0.08 0.09 0.08 0.08 0.07 0.06 0.03 0.02 0.01 0.00 0.00 0.00 0.00 0.00 0.00 0.00 0.00 0.00 0.00 0.00 0.00 0.00 0.00 0.00 0.00 0.00 0.00 0.00 0.00 0.00 0.00 0.00 0.00 0.00
0.05 0.06 0.09 0.12 0.13 0.14 0.12 0.10 0.10 0.09 0.08 0.07 0.06 0.04 0.03 0.01 0.01 0.00 0.00 0.00 0.00 0.00 0.00 0.00 0.00 0.00 0.00 0.00 0.00 0.00 0.00 0.00 0.00 0.00 0.00 0.00 0.00 0.00 0.00 0.00 0.00 0.00 0.00
0.05 0.06 0.07 0.09 0.10 0.11 0.11 0.11 0.09 0.08 0.06 0.05 0.04 0.03 0.02 0.01 0.01 0.00 0.00 0.00 0.00 0.00 0.00 0.00 0.00 0.00 0.00 0.00 0.00 0.00 0.00 0.00 0.00 0.00 0.00 0.00 0.00 0.00 0.00 0.00 0.00 0.00 0.01
0.04 0.05 0.07 0.08 0.08 0.07 0.06 0.05 0.05 0.04 0.03 0.03 0.02 0.02 0.02 0.01 0.01 0.00 0.00 0.00 0.00 0.00 0.00 0.00 0.00 0.00 0.00 0.00 0.00 0.00 0.00 0.00 0.00 0.00 0.00 0.00 0.00 0.00 0.00 0.00 0.00 0.00 0.01
0.02 0.03 0.04 0.04 0.04 0.04 0.03 0.03 0.02 0.02 0.01 0.01 0.01 0.01 0.01 0.00 0.00 0.00 0.00 0.00 0.00 0.00 0.00 0.00 0.00 0.00 0.00 0.00 0.00 0.00 0.00 0.00 0.00 0.00 0.00 0.00 0.00 0.00 0.00 0.00 0.00 0.00 0.00
MSLP
1010.49 1010.91 1011.32 1011.70 1012.04 1012.34 1012.62 1012.87 1013.13 1013.41 1013.71 1014.04 1014.37 1014.71 1015.04 1015.36 1015.67 1015.98 1016.29 1016.63 1016.98 1017.36 1017.73 1018.08 1018.40 1018.67 1018.88 1019.04 1019.15 1019.24 1019.34 1019.46 1019.61 1019.80 1020.01 1020.24 1020.45 1020.64 1020.79 1020.91 1021.00 1021.07 1021.15
1010.25 1010.61 1010.97 1011.31 1011.63 1011.93 1012.21 1012.48 1012.76 1013.06 1013.37 1013.70 1014.04 1014.40 1014.76 1015.14 1015.52 1015.92 1016.34 1016.77 1017.22 1017.66 1018.07 1018.45 1018.76 1019.01 1019.20 1019.33 1019.44 1019.55 1019.68 1019.85 1020.07 1020.33 1020.61 1020.88 1021.12 1021.31 1021.43 1021.49 1021.51 1021.50 1021.49
1010.02 1010.34 1010.65 1010.96 1011.26 1011.56 1011.84 1012.13 1012.43 1012.74 1013.07 1013.42 1013.79 1014.18 1014.60 1015.04 1015.50 1016.00 1016.53 1017.08 1017.62 1018.15 1018.63 1019.04 1019.37 1019.62 1019.79 1019.91 1020.02 1020.13 1020.29 1020.50 1020.76 1021.06 1021.38 1021.67 1021.92 1022.08 1022.16 1022.16 1022.09 1022.00 1021.91
1009.80 1010.10 1010.39 1010.68 1010.97 1011.27 1011.57 1011.87 1012.20 1012.53 1012.89 1013.27 1013.68 1014.11 1014.57 1015.08 1015.64 1016.23 1016.86 1017.51 1018.16 1018.77 1019.32 1019.78 1020.14 1020.41 1020.59 1020.71 1020.82 1020.94 1021.11 1021.33 1021.61 1021.92 1022.25 1022.54 1022.77 1022.90 1022.93 1022.87 1022.74 1022.57 1022.41
1009.63 1009.92 1010.21 1010.50 1010.80 1011.10 1011.42 1011.75 1012.11 1012.48 1012.87 1013.28 1013.73 1014.20 1014.72 1015.29 1015.91 1016.58 1017.29 1018.03 1018.76 1019.45 1020.06 1020.57 1020.98 1021.27 1021.47 1021.61 1021.72 1021.85 1022.01 1022.24 1022.51 1022.82 1023.13 1023.40 1023.60 1023.70 1023.70 1023.59 1023.41 1023.19 1022.98
1009.54 1009.85 1010.15 1010.46 1010.77 1011.09 1011.44 1011.81 1012.20 1012.61 1013.04 1013.49 1013.97 1014.48 1015.04 1015.65 1016.31 1017.04 1017.80 1018.59 1019.37 1020.11 1020.77 1021.33 1021.77 1022.09 1022.32 1022.48 1022.60 1022.73 1022.89 1023.10 1023.36 1023.65 1023.93 1024.17 1024.34 1024.42 1024.39 1024.26 1024.06 1023.83 1023.60
1009.57 1009.91 1010.24 1010.57 1010.91 1011.27 1011.65 1012.05 1012.48 1012.93 1013.40 1013.89 1014.40 1014.94 1015.52 1016.15 1016.84 1017.57 1018.35 1019.16 1019.95 1020.71 1021.39 1021.97 1022.44 1022.79 1023.04 1023.21 1023.35 1023.48 1023.64 1023.83 1024.06 1024.32 1024.57 1024.79 1024.93 1025.00 1024.96 1024.85 1024.66 1024.44 1024.22
1009.74 1010.12 1010.48 1010.85 1011.22 1011.62 1012.03 1012.48 1012.94 1013.43 1013.94 1014.47 1015.01 1015.57 1016.16 1016.79 1017.47 1018.19 1018.95 1019.73 1020.51 1021.24 1021.91 1022.49 1022.96 1023.32 1023.59 1023.78 1023.92 1024.05 1024.20 1024.37 1024.58 1024.80 1025.02 1025.21 1025.35 1025.41 1025.40 1025.31 1025.16 1024.98 1024.80
1010.03 1010.44 1010.84 1011.25 1011.66 1012.09 1012.55 1013.03 1013.54 1014.08 1014.62 1015.18 1015.75 1016.33 1016.92 1017.54 1018.20 1018.88 1019.60 1020.33 1021.05 1021.73 1022.36 1022.91 1023.37 1023.72 1023.99 1024.18 1024.33 1024.46 1024.60 1024.75 1024.93 1025.12 1025.31 1025.47 1025.60 1025.67 1025.68 1025.64 1025.54 1025.42 1025.30
1010.38 1010.82 1011.26 1011.70 1012.16 1012.63 1013.13 1013.66 1014.22 1014.80 1015.39 1015.98 1016.58 1017.18 1017.78 1018.39 1019.01 1019.65 1020.30 1020.96 1021.61 1022.23 1022.80 1023.30 1023.71 1024.05 1024.30 1024.49 1024.64 1024.76 1024.88 1025.02 1025.16 1025.32 1025.48 1025.63 1025.74 1025.82 1025.86 1025.85 1025.81 1025.75 1025.68
1010.74 1011.21 1011.68 1012.16 1012.65 1013.17 1013.72 1014.31 1014.92 1015.55 1016.18 1016.82 1017.45 1018.08 1018.68 1019.29 1019.88 1020.48 1021.07 1021.66 1022.23 1022.77 1023.26 1023.69 1024.06 1024.36 1024.59 1024.77 1024.91 1025.02 1025.13 1025.24 1025.36 1025.49 1025.62 1025.73 1025.84 1025.91 1025.96 1025.98 1025.99 1025.97 1025.95
1011.06 1011.54 1012.04 1012.55 1013.10 1013.67 1014.28 1014.92 1015.59 1016.28 1016.97 1017.66 1018.33 1018.98 1019.61 1020.21 1020.79 1021.34 1021.88 1022.40 1022.89 1023.34 1023.76 1024.12 1024.44 1024.69 1024.90 1025.06 1025.18 1025.29 1025.39 1025.48 1025.57 1025.67 1025.77 1025.85 1025.93 1025.99 1026.03 1026.06 1026.08 1026.09 1026.10
1011.31 1011.80 1012.33 1012.89 1013.49 1014.12 1014.80 1015.50 1016.23 1016.98 1017.72 1018.46 1019.18 1019.86 1020.51 1021.11 1021.67 1022.20 1022.69 1023.14 1023.56 1023.94 1024.28 1024.58 1024.83 1025.05 1025.22 1025.36 1025.48 1025.58 1025.67 1025.75 1025.82 1025.89 1025.96 1026.01 1026.05 1026.08 1026.10 1026.12 1026.14 1026.15 1026.16
1011.53 1012.04 1012.59 1013.20 1013.85 1014.55 1015.28 1016.05 1016.84 1017.64 1018.44 1019.22 1019.97 1020.68 1021.34 1021.95 1022.49 1022.99 1023.43 1023.83 1024.18 1024.49 1024.76 1025.00 1025.20 1025.38 1025.53 1025.65 1025.76 1025.86 1025.95 1026.02 1026.08 1026.14 1026.17 1026.19 1026.20 1026.20 1026.19 1026.18 1026.17 1026.16 1026.16
1011.78 1012.30 1012.89 1013.54 1014.25 1015.00 1015.79 1016.61 1017.45 1018.29 1019.13 1019.93 1020.70 1021.42 1022.08 1022.67 1023.20 1023.66 1024.06 1024.40 1024.69 1024.93 1025.14 1025.32 1025.48 1025.62 1025.75 1025.87 1025.98 1026.08 1026.17 1026.26 1026.32 1026.36 1026.38 1026.39 1026.36 1026.33 1026.29 1026.24 1026.20 1026.16 1026.13
1012.15 1012.68 1013.30 1013.99 1014.73 1015.53 1016.37 1017.22 1018.09 1018.95 1019.79 1020.60 1021.36 1022.06 1022.69 1023.26 1023.74 1024.16 1024.51 1024.79 1025.01 1025.20 1025.36 1025.49 1025.61 1025.72 1025.84 1025.95 1026.07 1026.19 1026.30 1026.40 1026.47 1026.53 1026.55 1026.54 1026.50 1026.44 1026.37 1026.30 1026.22 1026.16 1026.09
1012.70 1013.24 1013.87 1014.58 1015.35 1016.17 1017.02 1017.89 1018.75 1019.60 1020.43 1021.21 1021.93 1022.59 1023.17 1023.68 1024.11 1024.47 1024.75 1024.98 1025.15 1025.28 1025.38 1025.48 1025.57 1025.67 1025.77 1025.89 1026.03 1026.16 1026.30 1026.42 1026.52 1026.59 1026.62 1026.62 1026.58 1026.52 1026.44 1026.35 1026.25 1026.16 1026.07
1013.44 1013.98 1014.61 1015.32 1016.09 1016.90 1017.74 1018.58 1019.42 1020.23 1021.01 1021.73 1022.39 1022.98 1023.50 1023.94 1024.30 1024.59 1024.81 1024.98 1025.09 1025.18 1025.25 1025.31 1025.38 1025.47 1025.58 1025.71 1025.86 1026.02 1026.18 1026.32 1026.45 1026.55 1026.60 1026.62 1026.60 1026.55 1026.47 1026.37 1026.27 1026.16 1026.05
1014.33 1014.85 1015.46 1016.14 1016.88 1017.65 1018.45 1019.25 1020.03 1020.78 1021.48 1022.13 1022.72 1023.23 1023.67 1024.04 1024.33 1024.55 1024.71 1024.82 1024.90 1024.95 1024.99 1025.04 1025.11 1025.20 1025.31 1025.46 1025.62 1025.80 1025.99 1026.16 1026.31 1026.43 1026.52 1026.56 1026.56 1026.52 1026.46 1026.37 1026.27 1026.16 1026.05
1015.27 1015.75 1016.31 1016.93 1017.61 1018.33 1019.06 1019.79 1020.50 1021.17 1021.80 1022.37 1022.87 1023.31 1023.67 1023.97 1024.20 1024.36 1024.48 1024.56 1024.61 1024.65 1024.69 1024.74 1024.81 1024.91 1025.04 1025.20 1025.39 1025.59 1025.79 1025.98 1026.15 1026.29 1026.39 1026.45 1026.47 1026.45 1026.41 1026.34 1026.25 1026.15 1026.03
1016.13 1016.54 1017.03 1017.59 1018.19 1018.82 1019.47 1020.12 1020.75 1021.35 1021.90 1022.40 1022.83 1023.20 1023.51 1023.75 1023.93 1024.07 1024.16 1024.23 1024.28 1024.32 1024.38 1024.45 1024.55 1024.67 1024.83 1025.01 1025.21 1025.42 1025.63 1025.83 1026.00 1026.15 1026.25 1026.32 1026.36 1026.36 1026.33 1026.27 1026.20 1026.11 1025.99
1016.78 1017.13 1017.53 1018.00 1018.51 1019.06 1019.62 1020.19 1020.75 1021.27 1021.76 1022.20 1022.58 1022.91 1023.17 1023.39 1023.55 1023.68 1023.77 1023.85 1023.92 1024.00 1024.09 1024.20 1024.34 1024.50 1024.69 1024.89 1025.11 1025.33 1025.54 1025.73 1025.90 1026.04 1026.14 1026.20 1026.24 1026.24 1026.21 1026.17 1026.10 1026.01 1025.90
1017.15 1017.42 1017.74 1018.12 1018.54 1019.00 1019.48 1019.98 1020.47 1020.94 1021.39 1021.79 1022.14 1022.45 1022.70 1022.91 1023.08 1023.21 1023.33 1023.45 1023.56 1023.68 1023.82 1023.98 1024.17 1024.38 1024.60 1024.83 1025.07 1025.30 1025.51 1025.69 1025.84 1025.96 1026.04 1026.09 1026.10 1026.09 1026.06 1026.01 1025.94 1025.85 1025.74
1017.23 1017.43 1017.67 1017.96 1018.30 1018.69 1019.11 1019.54 1019.98 1020.42 1020.83 1021.21 1021.55 1021.85 1022.11 1022.33 1022.52 1022.69 1022.84 1023.00 1023.16 1023.33 1023.53 1023.75 1023.99 1024.24 1024.51 1024.78 1025.03 1025.27 1025.48 1025.65 1025.78 1025.88 1025.93 1025.95 1025.94 1025.91 1025.85 1025.78 1025.70 1025.60 1025.48
1017.07 1017.21 1017.39 1017.61 1017.89 1018.21 1018.57 1018.96 1019.37 1019.77 1020.17 1020.54 1020.89 1021.19 1021.46 1021.70 1021.92 1022.11 1022.30 1022.50 1022.70 1022.93 1023.18 1023.45 1023.74 1024.04 1024.35 1024.65 1024.93 1025.18 1025.39 1025.55 1025.67 1025.75 1025.77 1025.77 1025.72 1025.66 1025.58 1025.48 1025.38 1025.26 1025.12
1016.77 1016.87 1016.99 1017.17 1017.39 1017.67 1017.98 1018.34 1018.72 1019.11 1019.49 1019.86 1020.21 1020.52 1020.80 1021.06 1021.29 1021.51 1021.72 1021.95 1022.19 1022.45 1022.73 1023.04 1023.38 1023.72 1024.06 1024.39 1024.70 1024.96 1025.19 1025.35 1025.47 1025.53 1025.54 1025.50 1025.44 1025.34 1025.23 1025.10 1024.96 1024.81 1024.65
Thickness
5762 5759 5756 5754 5754 5752 5751 5750 5749 5748 5747 5745 5743 5741 5739 5737 5736 5734 5733 5732 5730 5729 5729 5727 5725 5724 5723 5723 5723 5721 5717 5714 5705 5702 5702 5700 5698 5696 5692 5690 5688 5685 5681
5762 5758 5755 5753 5752 5750 5748 5747 5747 5745 5743 5742 5740 5737 5735 5733 5731 5730 5728 5727 5725 5722 5722 5721 5719 5718 5716 5714 5713 5711 5709 5707 5701 5694 5692 5690 5687 5686 5684 5682 5680 5677 5673
5762 5758 5754 5751 5749 5746 5745 5744 5743 5741 5739 5737 5735 5733 5731 5729 5727 5725 5723 5722 5719 5717 5715 5712 5711 5709 5706 5705 5703 5701 5700 5699 5695 5689 5684 5681 5678 5676 5673 5672 5670 5667 5664
5760 5755 5751 5749 5746 5744 5742 5741 5739 5736 5734 5732 5731 5729 5727 5724 5722 5720 5717 5714 5710 5708 5706 5703 5701 5699 5697 5695 5693 5690 5689 5687 5684 5680 5675 5671 5667 5665 5662 5659 5656 5654 5652
5756 5751 5748 5745 5743 5740 5738 5736 5734 5732 5730 5727 5725 5723 5721 5719 5717 5714 5709 5705 5701 5697 5694 5692 5689 5687 5686 5684 5682 5679 5677 5674 5672 5668 5663 5659 5654 5650 5647 5646 5644 5641 5639
5751 5747 5744 5741 5738 5735 5733 5731 5728 5726 5724 5721 5718 5715 5713 5711 5710 5707 5703 5698 5693 5688 5684 5680 5678 5676 5673 5671 5669 5667 5665 5662 5659 5656 5651 5645 5639 5636 5634 5633 5630 5627 5624
5747 5743 5739 5736 5732 5729 5727 5724 5721 5719 5717 5713 5710 5707 5703 5701 5700 5697 5694 5689 5684 5680 5676 5672 5670 5665 5662 5660 5657 5655 5652 5649 5647 5643 5637 5632 5627 5624 5622 5620 5616 5613 5610
5741 5738 5734 5730 5726 5723 5720 5717 5714 5712 5708 5705 5701 5698 5694 5690 5689 5687 5683 5679 5674 5670 5666 5662 5659 5654 5652 5651 5647 5642 5638 5635 5633 5629 5624 5619 5615 5612 5609 5607 5605 5602 5599
5735 5731 5728 5724 5720 5716 5712 5710 5707 5704 5700 5696 5692 5688 5685 5680 5678 5677 5674 5669 5663 5658 5654 5650 5647 5644 5642 5640 5637 5631 5626 5621 5618 5615 5611 5607 5603 5600 5596 5594 5590 5588 5583
5728 5725 5722 5717 5713 5709 5705 5703 5700 5696 5692 5687 5682 5679 5675 5671 5668 5666 5664 5659 5653 5646 5641 5638 5635 5633 5631 5630 5626 5622 5616 5611 5608 5604 5600 5596 5591 5587 5583 5578 5574 5570 5566
5722 5718 5714 5709 5706 5702 5698 5695 5691 5686 5682 5677 5672 5668 5664 5660 5657 5655 5653 5649 5644 5638 5633 5628 5623 5621 5619 5617 5614 5609 5604 5600 5597 5594 5590 5585 5581 5575 5569 5564 5559 5554 5549
5715 5710 5706 5702 5699 5694 5690 5686 5682 5677 5671 5666 5662 5656 5651 5648 5646 5643 5641 5639 5634 5629 5622 5617 5611 5609 5607 5604 5600 5597 5593 5590 5587 5584 5578 5573 5567 5561 5556 5551 5547 5542 5537
5705 5701 5696 5692 5688 5684 5680 5676 5672 5668 5663 5658 5653 5647 5640 5636 5632 5631 5629 5626 5622 5617 5611 5605 5601 5597 5593 5591 5587 5584 5581 5579 5575 5571 5565 5559 5554 5549 5545 5540 5536 5532 5528
5696 5691 5686 5681 5676 5672 5669 5666 5662 5658 5654 5650 5645 5639 5632 5627 5623 5619 5615 5612 5608 5603 5598 5593 5589 5585 5581 5577 5575 5571 5568 5566 5562 5558 5553 5547 5543 5539 5534 5529 5525 5521 5517
5685 5681 5676 5670 5666 5659 5654 5650 5649 5645 5644 5642 5637 5632 5626 5618 5612 5610 5607 5602 5598 5593 5587 5583 5579 5575 5572 5569 5565 5562 5558 5554 5550 5546 5541 5536 5532 5527 5523 5519 5514 5510 5505
5674 5670 5665 5660 5654 5648 5642 5634 5629 5629 5628 5627 5624 5619 5613 5608 5602 5599 5595 5591 5586 5582 5579 5576 5573 5570 5566 5561 5557 5552 5547 5542 5538 5534 5529 5525 5521 5517 5513 5509 5504 5499 5494
5664 5660 5655 5650 5644 5638 5633 5628 5620 5613 5611 5610 5608 5605 5600 5595 5591 5588 5584 5579 5575 5572 5569 5568 5564 5561 5556 5552 5547 5542 5537 5532 5528 5524 5520 5516 5511 5507 5503 5499 5494 5490 5485
5652 5648 5644 5640 5635 5630 5625 5620 5614 5608 5602 5594 5591 5589 5587 5583 5579 5576 5572 5569 5566 5563 5562 5560 5555 5551 5547 5543 5538 5533 5528 5523 5519 5515 5511 5507 5503 5499 5495 5491 5487 5482 5478
5640 5637 5633 5628 5625 5620 5615 5610 5605 5599 5593 5587 5581 5576 5573 5571 5568 5565 5561 5561 5560 5558 5555 5553 5548 5544 5540 5534 5529 5524 5520 5516 5511 5507 5503 5499 5495 5491 5487 5483 5480 5475 5472
5628 5625 5622 5619 5615 5610 5606 5602 5596 5590 5585 5579 5575 5570 5565 5563 5561 5557 5555 5554 5554 5552 5549 5545 5541 5536 5531 5526 5521 5516 5513 5508 5504 5500 5495 5491 5487 5483 5480 5477 5473 5470 5466
5616 5613 5611 5608 5605 5602 5599 5595 5589 5584 5578 5573 5568 5563 5560 5558 5556 5553 5551 5549 5548 5546 5542 5538 5533 5528 5522 5517 5513 5509 5505 5501 5496 5492 5488 5484 5480 5477 5473 5470 5467 5464 5461
5605 5602 5600 5598 5595 5593 5590 5587 5582 5578 5573 5567 5562 5556 5552 5551 5551 5549 5547 5544 5542 5538 5534 5529 5526 5521 5516 5511 5506 5502 5498 5494 5489 5484 5480 5476 5473 5470 5468 5465 5462 5459 5456
5596 5595 5592 5590 5587 5583 5582 5579 5575 5570 5565 5561 5556 5552 5548 5546 5546 5544 5541 5538 5534 5530 5526 5521 5517 5514 5509 5503 5499 5494 5490 5485 5480 5476 5472 5469 5467 5464 5461 5459 5456 5454 5452
5589 5587 5584 5581 5578 5576 5574 5571 5568 5564 5560 5556 5552 5547 5543 5540 5540 5538 5534 5530 5526 5521 5517 5513 5509 5506 5501 5496 5491 5487 5482 5477 5473 5469 5466 5462 5460 5458 5456 5454 5452 5451 5448
5582 5580 5578 5575 5572 5570 5566 5564 5561 5558 5554 5550 5547 5542 5539 5536 5534 5531 5526 5522 5518 5514 5510 5506 5502 5499 5494 5489 5485 5480 5476 5471 5467 5464 5460 5457 5455 5453 5451 5450 5448 5447 5445
5577 5575 5573 5570 5567 5564 5561 5558 5555 5552 5549 5545 5542 5537 5534 5531 5528 5524 5520 5516 5512 5508 5504 5500 5496 5493 5489 5484 5480 5475 5471 5467 5463 5459 5456 5453 5451 5449 5448 5446 5445 5444 5443